| time (UTC) | temp F | wind direction | speed MPH | gust MPH | rain 1hr in | rain 24hr in | rain mn in | humidity % | barometer mb |
| 20260505061518 | 62 | 163 | 1.0 | 8.0 | 0.00 | 0.00 | 0.00 | 73 | 1005.1 |
| 20260505060015 | 62 | 153 | 1.0 | 4.0 | 0.00 | 0.00 | 0.00 | 73 | 1005.4 |
| 20260505054513 | 62 | 139 | 1.0 | 4.0 | 0.00 | 0.00 | 0.00 | 72 | 1005.6 |
| 20260505053010 | 63 | 186 | 2.0 | 7.0 | 0.00 | 0.00 | 0.00 | 72 | 1005.6 |
| 20260505051522 | 62 | 143 | 1.0 | 4.0 | 0.00 | 0.00 | 0.00 | 74 | 1005.7 |
| 20260505041601 | 60 | 194 | 0.0 | 2.0 | 0.00 | 0.00 | 0.00 | 77 | 1005.7 |
| 20260505040057 | 61 | 139 | 0.0 | 1.0 | 0.00 | 0.00 | 0.00 | 77 | 1005.8 |
| 20260505034556 | 60 | 197 | 0.0 | 2.0 | 0.00 | 0.00 | 0.00 | 78 | 1005.7 |
| 20260505033056 | 59 | 165 | 0.0 | 0.0 | 0.00 | 0.00 | 0.00 | 79 | 1005.8 |
| 20260505031558 | 60 | 165 | 0.0 | 0.0 | 0.00 | 0.00 | 0.00 | 78 | 1005.7 |
| 20260505030054 | 60 | 110 | 0.0 | 0.0 | 0.00 | 0.00 | 0.00 | 77 | 1005.6 |
| 20260505024555 | 60 | 163 | 0.0 | 0.0 | 0.00 | 0.00 | 0.00 | 75 | 1005.8 |
| 20260505023054 | 62 | 153 | 0.0 | 2.0 | 0.00 | 0.00 | 0.00 | 72 | 1005.7 |
| 20260505021553 | 62 | 264 | 0.0 | 6.0 | 0.00 | 0.00 | 0.00 | 71 | 1005.8 |
| 20260505014553 | 63 | 150 | 0.0 | 2.0 | 0.00 | 0.00 | 0.00 | 68 | 1005.5 |
| 20260505013055 | 63 | 138 | 0.0 | 2.0 | 0.00 | 0.00 | 0.00 | 67 | 1005.5 |
| 20260505011553 | 63 | 143 | 0.0 | 2.0 | 0.00 | 0.00 | 0.00 | 67 | 1005.4 |
| 20260505010108 | 64 | 160 | 0.0 | 2.0 | 0.00 | 0.00 | 0.00 | 65 | 1005.3 |
| 20260505004550 | 65 | 167 | 1.0 | 4.0 | 0.00 | 0.00 | 0.00 | 64 | 1005.3 |
| 20260505003054 | 65 | 170 | 1.0 | 4.0 | 0.00 | 0.00 | 0.00 | 63 | 1005.2 |
| 20260505001549 | 66 | 166 | 1.0 | 4.0 | 0.00 | 0.00 | 0.00 | 62 | 1005.4 |
| 20260505000048 | 66 | 145 | 1.0 | 5.0 | 0.00 | 0.00 | 0.00 | 61 | 1005.4 |
| 20260504234545 | 67 | 128 | 2.0 | 5.0 | 0.00 | 0.00 | 0.00 | 60 | 1005.5 |
| 20260504233100 | 68 | 163 | 1.0 | 6.0 | 0.00 | 0.00 | 0.00 | 59 | 1005.8 |
| 20260504231546 | 68 | 141 | 1.0 | 6.0 | 0.00 | 0.00 | 0.00 | 57 | 1005.8 |
| 20260504230052 | 69 | 127 | 1.0 | 5.0 | 0.00 | 0.00 | 0.00 | 56 | 1005.9 |
| 20260504224542 | 69 | 160 | 1.0 | 5.0 | 0.00 | 0.00 | 0.00 | 56 | 1005.9 |
| 20260504223041 | 70 | 169 | 3.0 | 7.0 | 0.00 | 0.00 | 0.00 | 57 | 1006.0 |
| 20260504221540 | 69 | 232 | 1.0 | 8.0 | 0.00 | 0.00 | 0.00 | 58 | 1006.2 |
| 20260504220040 | 69 | 264 | 2.0 | 5.0 | 0.00 | 0.00 | 0.00 | 55 | 1006.0 |
| 20260504214539 | 69 | 162 | 1.0 | 5.0 | 0.00 | 0.00 | 0.00 | 56 | 1005.8 |
| 20260504213038 | 70 | 190 | 3.0 | 5.0 | 0.00 | 0.00 | 0.00 | 54 | 1006.0 |
| 20260504211539 | 71 | 165 | 3.0 | 12.0 | 0.00 | 0.00 | 0.00 | 52 | 1006.3 |
| 20260504210042 | 72 | 135 | 2.0 | 9.0 | 0.00 | 0.00 | 0.00 | 50 | 1006.6 |
| 20260504204538 | 74 | 82 | 4.0 | 14.0 | 0.00 | 0.00 | 0.00 | 49 | 1006.6 |
| 20260504203050 | 74 | 218 | 2.0 | 9.0 | 0.00 | 0.00 | 0.00 | 49 | 1006.3 |
| 20260504201533 | 74 | 174 | 4.0 | 15.0 | 0.00 | 0.00 | 0.00 | 48 | 1006.3 |
| 20260504200032 | 74 | 264 | 1.0 | 6.0 | 0.00 | 0.00 | 0.00 | 51 | 1006.3 |
| 20260504194534 | 73 | 243 | 1.0 | 10.0 | 0.00 | 0.00 | 0.00 | 50 | 1006.3 |
| 20260504193031 | 74 | 68 | 3.0 | 12.0 | 0.00 | 0.00 | 0.00 | 47 | 1006.4 |
| 20260504191529 | 73 | 172 | 3.0 | 7.0 | 0.00 | 0.00 | 0.00 | 47 | 1006.3 |
| 20260504190028 | 74 | 156 | 4.0 | 10.0 | 0.00 | 0.00 | 0.00 | 48 | 1006.5 |
| 20260504184527 | 74 | 210 | 2.0 | 10.0 | 0.00 | 0.00 | 0.00 | 49 | 1006.7 |
| 20260504183030 | 74 | 219 | 2.0 | 9.0 | 0.00 | 0.00 | 0.00 | 48 | 1006.8 |
| 20260504181520 | 73 | 160 | 2.0 | 8.0 | 0.00 | 0.00 | 0.00 | 57 | 1006.9 |
| 20260504180016 | 72 | 83 | 2.0 | 11.0 | 0.00 | 0.00 | 0.00 | 52 | 1007.0 |
| 20260504174514 | 71 | 127 | 3.0 | 10.0 | 0.00 | 0.00 | 0.00 | 52 | 1007.2 |
| 20260504173010 | 70 | 177 | 4.0 | 11.0 | 0.00 | 0.00 | 0.00 | 53 | 1007.4 |
| 20260504171507 | 69 | 170 | 3.0 | 7.0 | 0.00 | 0.00 | 0.00 | 54 | 1007.7 |
| 20260504081536 | 48 | 143 | 0.0 | 1.0 | 0.00 | 0.00 | 0.00 | 69 | 1010.9 |